TIME,DELAY(SENSOR),PRES,OXYGEN,RAWTEMP,T(OPTODE),TCPHASE,FLUOR,BETA(BETA700),BETA(BETA412),BETA(BETA440),CDOM,C(CSC),ED(ED411.90),ED(ED443.80),ED(ED489.40),ED(ED554.70),LU(LU412.20),LU(LU443.80),LU(LU489.40),LU(LU555.00),COMP,TILTX,TILTY,CHECK
1340488267,5804,848.6199951171875000,193.4832000732422000,486.9093933105469000,7.9350562095642090,38.0807609558105500,52,103,101,80,81,14917,2146955629,2147516699,2147292388,2147522249,2147091840,2146924324,2147718893,2147118400,1536,-1,8,36952
1340491863,5804,975.7500000000000000,230.8623046875000000,534.9724121093750000,6.4402580261230470,36.7476310729980500,53,103,100,79,82,14907,2146957129,2147514962,2147296704,2147529106,2147091282,2146915282,2147723931,2147118034,3426,-1,8,35973
1340495463,5805,997.1400146484375000,238.4803009033203000,541.1508789062500000,6.2468929290771480,36.4597282409668000,52,103,100,80,82,14901,2146957705,2147512786,2147293220,2147530788,2147091693,2146923684,2147727789,2147113609,3025,-1,8,41313
1340499063,5807,996.2199707031250000,240.6508941650390600,542.1187744140625000,6.2165760993957520,36.3656883239746100,52,103,101,79,82,14903,2146957476,2147515145,2147297654,2147533522,2147089828,2146919588,2147729499,2147115638,3471,-1,8,39094
1340502663,5806,999.7399902343750000,242.7626037597656200,544.9647216796875000,6.1273918151855470,36.3098716735839840,52,104,101,78,81,14901,2146956964,2147517714,2147299785,2147529435,2147091245,2146918537,2147730560,2147117403,104,-1,8,16457
1340506263,5807,999.9600219726562000,243.6248931884765600,545.3447265625000000,6.1154799461364750,36.2733001708984400,52,100,101,79,82,14899,2146957449,2147515584,2147302006,2147531044,2147089938,2146920036,2147730596,2147116973,558,-1,8,31322
1340509863,5807,1004.5200195312500000,245.7167968750000000,546.2863159179688000,6.0859570503234860,36.1847381591796900,53,102,101,79,82,14900,2146956425,2147516388,2147295451,2147532864,2147089051,2146918025,2147724854,2147117906,3359,-1,8,52185
1340513463,5805,1002.7199707031250000,244.6802978515625000,546.5692138671875000,6.0770840644836430,36.2416687011718750,53,102,100,80,83,14894,2146958116,2147514194,2147294326,2147531922,2147091556,2146915574,2147728118,2147115931,124,-1,8,37186
1340517063,5805,1002.0800170898438000,245.9246063232422000,547.1378173828125000,6.0592498779296875,36.1897087097168000,52,101,101,81,82,14896,2146955282,2147518738,2147299565,2147531483,2147095625,2146923730,2147729572,2147117065,3424,-1,8,13666
1340520663,5806,1000.7100219726562000,247.1979980468750000,547.9682006835938000,6.0332012176513670,36.1412391662597660,52,101,100,80,81,14897,2146958134,2147515766,2147300178,2147528877,2147091172,2146921005,2147725787,2147114112,30,-1,7,18720
1340524263,5808,1004.8800048828125000,247.1004028320312500,547.6489868164062000,6.0432128906250000,36.1406784057617200,52,103,102,80,81,14895,2146958427,2147517403,2147296210,2147534226,2147089426,2146916150,2147731392,2147115209,384,-1,8,37301
1340527863,5806,1009.2299804687500000,245.9718017578125000,546.8536987304688000,6.0681610107421875,36.1820907592773440,52,104,99,78,81,14894,2146958098,2147516352,2147299090,2147531053,2147089088,2146919186,2147728932,2147115300,3437,-1,8,61403
1340531463,5807,1008.6599731445312000,245.0720062255859400,546.9166259765625000,6.0661888122558590,36.2290306091308600,51,102,101,78,82,14893,2146954742,2147519369,2147298331,2147528987,2147091812,2146918317,2147730240,2147113947,3408,-1,8,58981
1340535063,5806,1011.5800170898438000,246.2830047607422000,547.4683227539062000,6.0488848686218260,36.1783218383789060,53,102,104,79,82,14894,2146957220,2147517677,2147299437,2147533037,2147089014,2146917348,2147729499,2147114203,3119,-1,8,8932
1340538663,5805,1013.2700195312500000,244.9600067138672000,546.3435058593750000,6.0841622352600100,36.2239608764648440,52,104,101,80,82,14860,2146956480,2147512292,2147298624,2147530925,2147090505,2146918162,2147731702,2147112338,3584,-1,8,51944
1340542263,5804,1013.3099975585938000,244.1168060302734400,546.3129272460938000,6.0851211547851560,36.2658882141113300,52,103,101,80,82,14849,2146958747,2147514294,2147298258,2147532214,2147089856,2146923620,2147729627,2147115666,3294,-1,8,358
1340545863,5807,1011.0599975585938000,244.1336975097656200,546.9199829101562000,6.0660820007324220,36.2758598327636700,52,110,99,79,82,14849,2146957568,2147515940,2147301979,2147531949,2147090404,2146918025,2147730048,2147114029,3560,-1,8,39374
1340549463,5803,1010.9299926757812000,245.7118988037109400,549.3991699218750000,5.9882998466491700,36.2416496276855500,53,103,102,80,81,14848,2146959341,2147516745,2147296356,2147529938,2147090240,2146919076,2147728502,2147116105,3219,-1,8,60694
1340553063,5806,1011.1199951171875000,247.6916046142578000,548.5781250000000000,6.0140647888183590,36.1285209655761700,52,103,100,79,82,14814,2146956964,2147518756,2147293174,2147529892,2147090733,2146915547,2147728484,2147116827,3103,-1,8,4327
1340556663,5808,1008.5200195312500000,246.5292968750000000,550.0051879882812000,5.9692797660827640,36.2117195129394500,52,101,100,79,81,14843,2146958098,2147518080,2147297828,2147530715,2147091008,2146917732,2147731565,2147116397,90,-1,8,31673
1340560263,5805,1016.8200073242188000,247.1212005615234400,550.0026245117188000,5.9693598747253420,36.1824111938476560,52,107,99,79,82,14845,2146959040,2147516032,2147296658,2147533906,2147092489,2146916644,2147731382,2147115949,466,-1,8,14024
1340563863,5805,1010.7100219726562000,247.3076019287109400,548.8029785156250000,6.0070099830627440,36.1515693664550800,52,102,99,79,82,14845,2146956434,2147518573,2147298825,2147529883,2147092434,2146912704,2147728265,2147117238,509,-1,8,47244
1340567463,5803,1007.6599731445312000,247.5260009765625000,550.5073242187500000,5.9535179138183590,36.1710281372070300,52,103,101,78,81,14832,2146957952,2147515254,2147298496,2147531117,2147091931,2146915977,2147729453,2147116242,496,-1,8,27886
1340571063,5805,1004.6799926757812000,250.7935028076172000,552.3201904296875000,5.8965950012207030,36.0430488586425800,51,103,99,79,81,14837,2146958976,2147516553,2147299620,2147530934,2147091392,2146918363,2147729737,2147117046,651,-1,8,41924
1340574663,5809,1013.5200195312500000,250.9178009033203000,552.1754760742188000,5.9011402130126950,36.0345611572265600,52,102,100,80,81,14835,2146957522,2147514550,2147299830,2147533833,2147091446,2146917942,2147731245,2147112438,96,-1,8,56705
1340578263,5806,1018.0399780273438000,248.7637939453125000,549.0795288085938000,5.9983310699462890,36.0840492248535160,53,102,101,79,82,14835,2146955090,2147516534,2147300004,2147527597,2147089645,2146921426,2147731218,2147115620,3138,-1,8,36052
1340581863,5802,1022.4000244140625000,248.0402069091797000,548.7105712890625000,6.0099067687988280,36.1133193969726560,52,102,101,79,81,14836,2146958747,2147514669,2147299849,2147531529,2147092726,2146918098,2147730697,2147114358,2893,-1,8,10864
1340585463,5807,1015.5900268554688000,247.2339019775390600,548.7418823242188000,6.0089259147644040,36.1540985107421900,52,105,101,79,81,14832,2146959222,2147515446,2147299190,2147527286,2147091675,2146918811,2147729462,2147117001,364,-1,8,61272
1340589063,5803,1014.0200195312500000,249.8065032958984400,550.3856811523438000,5.9573349952697750,36.0568504333496100,52,103,99,80,82,14833,2146957412,2147517961,2147299209,2147529682,2147092096,2146922157,2147731410,2147113261,2977,-1,8,21575
1340592663,5806,1011.5499877929688000,247.9866027832031200,550.0078125000000000,5.9692001342773440,36.1391601562500000,52,102,100,79,82,14812,2146959835,2147521161,2147300306,2147527396,2147090505,2146916233,2147730688,2147116562,332,-1,8,9854
1340596263,5805,1009.9699707031250000,249.0081939697265600,551.0836791992188000,5.9354209899902340,36.1085586547851560,53,103,100,79,81,14812,2146959405,2147515894,2147298404,2147531657,2147089334,2146920804,2147726153,2147114633,3021,-1,8,26067
1340599863,5805,1014.2999877929688000,248.7718963623047000,550.8933715820312000,5.9413971900939940,36.1166496276855500,53,102,99,80,82,14817,2146958619,2147516288,2147298806,2147531712,2147093869,2146915209,2147728749,2147117513,3416,-1,8,16672
1340603463,5805,1014.8499755859375000,249.1121063232422000,550.7667846679688000,5.9453701972961430,36.0979804992675800,52,103,102,79,81,14813,2146958445,2147517750,2147296749,2147528905,2147091675,2146920192,2147733604,2147115364,3365,-1,8,55590
1340607063,5803,1012.6500244140625000,249.4597930908203000,551.8792114257812000,5.9104461669921875,36.1009788513183600,52,105,102,79,82,14815,2146959661,2147514889,2147298139,2147530870,2147092809,2146921398,2147729737,2147115913,3514,-1,8,27245
1340610663,5805,1008.7399902343750000,250.6466979980468800,552.6345825195312000,5.8867211341857910,36.0558586120605500,52,104,100,79,82,14803,2146957586,2147515337,2147297371,2147532032,2147092333,2146917696,2147730166,2147112338,297,-1,8,52067
1340614263,5806,1018.0000000000000000,251.0870056152343800,551.9509277343750000,5.9081940650939940,36.0226783752441400,52,103,101,80,82,14811,2146957302,2147516480,2147300187,2147532406,2147091556,2146911972,2147731035,2147115867,3511,-1,8,2768
1340617863,5808,1017.7000122070312000,248.5346984863281200,549.4376220703125000,5.9870948791503910,36.1016197204589840,53,103,102,80,81,14809,2146955446,2147517805,2147298596,2147533504,2147094281,2146916772,2147733750,2147114486,39,-1,8,56365
1340621463,5808,1019.6699829101562000,247.8397064208984400,549.3867187500000000,5.9886932373046875,36.1356697082519500,52,102,101,78,82,14807,2146959341,2147516571,2147299602,2147528621,2147091062,2146924461,2147727936,2147117110,188,-1,8,1563
1340625063,5805,1021.2999877929688000,248.4270935058593800,549.2357177734375000,5.9934291839599610,36.1040611267089840,53,100,99,79,83,14799,2146954816,2147515638,2147299492,2147530541,2147088466,2146914752,2147730806,2147116608,3342,-1,8,33831
1340628663,5807,1013.2399902343750000,249.4989013671875000,550.8181152343750000,5.9437599182128910,36.0793418884277340,52,103,100,79,82,14796,2146955684,2147515995,2147297929,2147531757,2147091291,2146925366,2147727506,2147117339,3591,-1,8,41836
1340631956,5800,1020.3499755859375000,249.2928009033203000,551.5062255859375000,5.9221549034118650,36.1019706726074200,52,104,101,79,83,14820,2146957138,2147517531,2147299520,2147530221,2147089526,2146920393,2147731081,2147115446,2739,-1,8,17396
